KMNDEEPH5 Weather Reports


Display with metric or nautical units.
time (UTC)temp
F
wind
direction
speed
MPH
gust
MPH
rain 1hr
in
rain 24hr
in
rain mn
in
humidity
%
barometer
mb
20260507093051 36 0 0.0 1.0 0.00 0.00 0.00 86 1013.5
20260507091553 36 0 0.0 2.0 0.00 0.00 0.00 83 1013.5
20260507090054 37 92 0.0 2.0 0.00 0.00 0.00 81 1013.5
20260507084550 36 0 0.0 0.0 0.00 0.00 0.00 82 1013.5
20260507083049 37 0 0.0 2.0 0.00 0.00 0.00 81 1013.5
20260507081549 37 111 1.0 2.0 0.00 0.00 0.00 82 1013.5
20260507080047 37 135 0.0 2.0 0.00 0.00 0.00 80 1013.7
20260507074551 37 97 0.0 1.0 0.00 0.00 0.00 80 1013.7
20260507073125 37 118 0.0 1.0 0.00 0.00 0.00 79 1013.8
20260507071551 38 0 0.0 2.0 0.00 0.00 0.00 79 1013.9
20260507070052 38 107 1.0 2.0 0.00 0.00 0.00 78 1014.0
20260507064607 38 0 1.0 2.0 0.00 0.00 0.00 76 1014.1
20260507063056 39 130 1.0 3.0 0.00 0.00 0.00 76 1014.2
20260507061548 41 0 0.0 6.0 0.00 0.00 0.00 68 1014.4
20260507060057 42 261 4.0 7.0 0.00 0.00 0.00 59 1014.3
20260507054549 42 276 5.0 7.0 0.00 0.00 0.00 56 1014.4
20260507053053 42 281 4.0 6.0 0.00 0.00 0.00 57 1014.5
20260507051550 42 265 4.0 6.0 0.00 0.00 0.00 55 1014.5
20260507050055 43 286 4.0 6.0 0.00 0.00 0.00 56 1014.6
20260507044550 43 295 5.0 6.0 0.00 0.00 0.00 53 1014.7
20260507043051 43 288 3.0 5.0 0.00 0.00 0.00 57 1014.7
20260507041549 43 280 3.0 5.0 0.00 0.00 0.00 55 1014.9
20260507040103 43 304 4.0 6.0 0.00 0.00 0.00 55 1015.0
20260507034610 43 295 4.0 6.0 0.00 0.00 0.00 54 1015.0
20260507033103 42 284 4.0 6.0 0.00 0.00 0.00 56 1015.0
20260507031549 43 298 4.0 6.0 0.00 0.00 0.00 56 1015.1
20260507030050 43 303 5.0 7.0 0.00 0.00 0.00 54 1015.2
20260507024556 43 298 5.0 8.0 0.00 0.00 0.00 56 1015.2
20260507023047 43 298 5.0 8.0 0.00 0.00 0.00 57 1015.2
20260507021555 43 305 5.0 8.0 0.00 0.00 0.00 55 1015.2
20260507020052 43 299 7.0 9.0 0.00 0.00 0.00 52 1015.3
20260507014552 43 307 7.0 10.0 0.00 0.00 0.00 51 1015.2
20260507013103 43 302 8.0 11.0 0.00 0.00 0.00 54 1015.2
20260507011550 43 299 10.0 13.0 0.00 0.00 0.00 51 1015.3
20260507010053 44 291 8.0 11.0 0.00 0.00 0.00 54 1015.3
20260507004551 44 301 10.0 18.0 0.00 0.00 0.00 51 1015.3
20260507003051 44 293 11.0 16.0 0.00 0.00 0.00 56 1015.4
20260507001607 45 294 14.0 19.0 0.00 0.00 0.00 52 1015.4
20260507000051 44 267 12.0 20.0 0.00 0.00 0.00 54 1015.5
20260506234557 44 260 13.0 18.0 0.00 0.00 0.00 53 1015.3
20260506233050 44 284 14.0 17.0 0.00 0.00 0.00 55 1015.5
20260506231549 44 281 15.0 19.0 0.00 0.00 0.00 55 1015.5
20260506230054 44 279 11.0 19.0 0.00 0.00 0.00 51 1015.5
20260506224604 44 291 11.0 17.0 0.00 0.00 0.00 51 1015.6
20260506223049 44 281 12.0 17.0 0.00 0.00 0.00 54 1015.6
20260506221550 43 269 12.0 15.0 0.00 0.00 0.00 54 1015.8